"Pseudo-MPEC" for C14GC92

Created 2019 Oct 10 19:07:06 UT using Find_Orb

Click here for an explanation of pseudo-MPECs

 
 Astrometry: 
     C14GC92  C2019 10 07.40683 05 48 59.95 +41 10 35.4    ~A7Aq 21.5 GVNEOCPG96
     C14GC92  C2019 10 07.41203 05 49 01.92 +41 10 40.2    ~A7Aq 21.4 GVNEOCPG96
     C14GC92  C2019 10 07.41722 05 49 03.92 +41 10 45.2    ~A7Aq 21.7 GVNEOCPG96
     C14GC92  C2019 10 07.47774 05 49 27.22 +41 11 40.6    ~A7C7 21.4 GVNEOCPG96
     C14GC92  C2019 10 07.47919 05 49 27.76 +41 11 42.0    ~A7C7 21.5 GVNEOCPG96
     C14GC92  C2019 10 07.48063 05 49 28.32 +41 11 43.4    ~A7C7 21.6 GVNEOCPG96
     C14GC92  C2019 10 07.48208 05 49 28.90 +41 11 44.4    ~A7C7 21.6 GVNEOCPG96
     C14GC92  C2019 10 08.47210 05 56 02.66 +41 26 07.5    ~A8CM 21.1 GVNEOCPI52
     C14GC92  C2019 10 08.47717 05 56 04.71 +41 26 11.4    ~A8CM 20.8 GVNEOCPI52
     C14GC92  C2019 10 08.48228 05 56 06.74 +41 26 16.0    ~A8CM 21.6 GVNEOCPI52
     C14GC92  C2019 10 08.48743 05 56 08.82 +41 26 20.8    ~A8CM 21.4 GVNEOCPI52
     C14GC92 KC2019 10 09D#fc/Kv20bAstrometry:VyXredacted;!RQix:!rP1LU;A/J@26H21
     C14GC92 KC2019 10 09)uZclick-LvG\vZhere7(eZYZ\QdformXexplanation@by)fs;WH21
     C14GC92 KC2019 10 10.34811406 09 01.42 +41 50 18.8    ~AA9M 20.9 GVNEOCPH01
     C14GC92 KC2019 10 10.35329706 09 03.58 +41 50 22.7    ~AA9M 21.4 GVNEOCPH01
     C14GC92 KC2019 10 10.36907306 09 10.22 +41 50 34.4    ~AA9M 20.8 GVNEOCPH01
     C14GC92 KC2019 10 10.37240606 09 11.62 +41 50 36.9    ~AA9M 21.2 GVNEOCPH01

Station data:
(G96) Mt. Lemmon Survey  (N32.442754 W110.788720)  US/Arizona.  Observers T.
   A. Pruyne, B. M. Africano, E. J. Christensen, G. A. Farneth, D. C. Fuls,
   A. R. Gibbs, A. D. Grauer, H. Groeller, J. A. Johnson, R. A. Kowalski, S.
   M. Larson, G. J. Leonard, D. Rankin, R. L. Seaman, F. C. Shelly. 1.5-m
   reflector + 10K CCD.
(H01) Magdalena Ridge Observatory, Socorro  (N33.984833 W107.189333)  US/New
   Mexico.  Observers W. H. Ryan, E. V. Ryan. Measurer W. H. Ryan. 2.4-m
   f/8.9 reflector + CCD.
(H21) Astronomical Research Observatory, Westfield  (N39.483057 W87.968270)
   US/Illinois. 0.76-m f/3.0 astrograph + CCD.
(I52) Steward Observatory, Mt. Lemmon Station  (N32.442547 W110.788920)
   US/Arizona.  Observers T. A. Pruyne, B. M. Africano, E. J. Christensen, G.
   A. Farneth, D. C. Fuls, A. R. Gibbs, A. D. Grauer, H. Groeller, J. A.
   Johnson, R. A. Kowalski, S. M. Larson, G. J. Leonard, D. Rankin, R. L.
   Seaman, F. C. Shelly. 1.0-m reflector + CCD.

Orbital elements:  C14GC92
   Perihelion 2019 Dec 12.801872 +/- 2.64 TT = 19:14:41 (JD 2458830.301872)
Epoch 2019 Oct 10.0 TT = JDT 2458766.5   Earth MOID: 0.0426   Ju: 0.8022
M 345.18667945 +/- 6                (J2000 ecliptic)          AutoNEOCP
n   0.23217689 +/- 0.0973           Peri.  156.11852 +/- 5.1
a   2.62174258 +/- 0.732            Node   320.19927 +/- 3.1
e   0.6639339 +/- 0.089             Incl.    8.17946 +/- 0.43
P   4.25                   H 20.4   G  0.15   U 11.2  
q 0.88107866 +/- 0.0185    Q 4.36240650 +/- 2.12
From 17 observations 2019 Oct. 7-10; mean residual 0".20
Residuals in arcseconds: 
191007 G96  .37+  .20+    191007 G96  .11+  .29-    191009 H21  .13+  .11+    
191007 G96  .01-  .13+    191008 I52  .55-  .01-    191010 H01  .25+  .02+    
191007 G96  .00   .28+    191008 I52  .11-  .43-    191010 H01  .04-  .03+    
191007 G96  .00   .14-    191008 I52  .07-  .17-    191010 H01  .14-  .07-    
191007 G96  .20-  .06-    191008 I52  .36+  .27+    191010 H01  .19-  .05-    
191007 G96  .14-  .03+    191009 H21  .17+  .13+    

Ephemerides (geocentric):
Date (UTC) HH   RA              Dec         delta   r     elong  mag " sig PA
---- -- -- --  -------------   -----------  ------ ------ -----  --- ---- ---
2019 10 10 19  06 12 10.534   +41 55 25.85  .55430 1.2521 103.8 21.5 .561 103
2019 10 10 20  06 12 28.513   +41 55 53.73  .55392 1.2517 103.7 21.5 .568 104
2019 10 10 21  06 12 46.514   +41 56 21.46  .55354 1.2513 103.7 21.5 .575 104
2019 10 10 22  06 13 04.535   +41 56 49.06  .55316 1.2509 103.7 21.5 .581 105
2019 10 10 23  06 13 22.578   +41 57 16.50  .55279 1.2505 103.7 21.5 .587 105
2019 10 11 00  06 13 40.641   +41 57 43.81  .55241 1.2502 103.7 21.5 .593 106
2019 10 11 01  06 13 58.725   +41 58 10.96  .55203 1.2498 103.7 21.5 .599 106
2019 10 11 02  06 14 16.830   +41 58 37.97  .55165 1.2494 103.6 21.5 .605 107
2019 10 11 03  06 14 34.955   +41 59 04.84  .55128 1.2490 103.6 21.5 .610 107
2019 10 11 04  06 14 53.102   +41 59 31.56  .55090 1.2486 103.6 21.5 .615 108
2019 10 11 05  06 15 11.270   +41 59 58.13  .55053 1.2483 103.6 21.5 .620 108
2019 10 11 06  06 15 29.458   +42 00 24.55  .55015 1.2479 103.6 21.5 .624 109
2019 10 11 07  06 15 47.667   +42 00 50.83  .54978 1.2475 103.5 21.5 .628 109
2019 10 11 08  06 16 05.897   +42 01 16.95  .54940 1.2471 103.5 21.5 .632 110
2019 10 11 09  06 16 24.148   +42 01 42.93  .54903 1.2467 103.5 21.5 .636 110
2019 10 11 10  06 16 42.420   +42 02 08.75  .54866 1.2464 103.5 21.5 .639 111
2019 10 11 11  06 17 00.713   +42 02 34.42  .54828 1.2460 103.5 21.5 .642 112
2019 10 11 12  06 17 19.026   +42 02 59.95  .54791 1.2456 103.5 21.5 .645 112
2019 10 11 13  06 17 37.360   +42 03 25.32  .54754 1.2452 103.4 21.5 .648 113
2019 10 11 14  06 17 55.715   +42 03 50.53  .54717 1.2448 103.4 21.5 .650 114
2019 10 11 15  06 18 14.091   +42 04 15.60  .54680 1.2445 103.4 21.5 .652 114
2019 10 11 16  06 18 32.488   +42 04 40.51  .54643 1.2441 103.4 21.5 .653 115
2019 10 11 17  06 18 50.906   +42 05 05.26  .54606 1.2437 103.4 21.5 .654 116
2019 10 11 18  06 19 09.344   +42 05 29.87  .54569 1.2433 103.3 21.5 .655 116
2019 10 11 19  06 19 27.804   +42 05 54.31  .54532 1.2430 103.3 21.5 .656 117
2019 10 11 20  06 19 46.284   +42 06 18.60  .54495 1.2426 103.3 21.5 .656 118
2019 10 11 21  06 20 04.785   +42 06 42.73  .54458 1.2422 103.3 21.5 .656 119
2019 10 11 22  06 20 23.306   +42 07 06.71  .54421 1.2418 103.3 21.5 .655 120
2019 10 11 23  06 20 41.849   +42 07 30.52  .54385 1.2414 103.3 21.5 .654 121
2019 10 12 00  06 21 00.412   +42 07 54.18  .54348 1.2411 103.2 21.5 .653 122
2019 10 12 01  06 21 18.996   +42 08 17.68  .54311 1.2407 103.2 21.5 .652 123
2019 10 12 02  06 21 37.601   +42 08 41.02  .54275 1.2403 103.2 21.5 .650 124
2019 10 12 03  06 21 56.226   +42 09 04.20  .54238 1.2399 103.2 21.5 .648 125
2019 10 12 04  06 22 14.873   +42 09 27.22  .54202 1.2395 103.2 21.5 .646 126
2019 10 12 05  06 22 33.540   +42 09 50.07  .54165 1.2392 103.1 21.5 .644 127
2019 10 12 06  06 22 52.228   +42 10 12.77  .54129 1.2388 103.1 21.5 .641 129
2019 10 12 07  06 23 10.936   +42 10 35.30  .54092 1.2384 103.1 21.5 .638 130
2019 10 12 08  06 23 29.666   +42 10 57.66  .54056 1.2380 103.1 21.5 .635 131
2019 10 12 09  06 23 48.416   +42 11 19.87  .54020 1.2377 103.1 21.5 .632 133
2019 10 12 10  06 24 07.186   +42 11 41.91  .53984 1.2373 103.0 21.5 .629 134
2019 10 12 11  06 24 25.978   +42 12 03.78  .53947 1.2369 103.0 21.5 .626 136
2019 10 12 12  06 24 44.790   +42 12 25.49  .53911 1.2365 103.0 21.5 .623 138
2019 10 12 13  06 25 03.622   +42 12 47.03  .53875 1.2362 103.0 21.5 .619 139
2019 10 12 14  06 25 22.476   +42 13 08.41  .53839 1.2358 103.0 21.5 .617 141
2019 10 12 15  06 25 41.350   +42 13 29.61  .53803 1.2354 102.9 21.5 .614 143
2019 10 12 16  06 26 00.245   +42 13 50.65  .53767 1.2350 102.9 21.5 .611 145
2019 10 12 17  06 26 19.160   +42 14 11.52  .53731 1.2346 102.9 21.5 .609 147
2019 10 12 18  06 26 38.096   +42 14 32.22  .53696 1.2343 102.9 21.5 .607 149